EWG3MJ LEPA-EDDL

Flight info

Callsign EWG3MJ
Flight time 1h 57m
Altitude 36000
Route MEROS N853 LUMAS DCT MAXIR DCT LUSOL DCT BODRU DCT OKTET DCT IRMAR DCT KINES DCT VANAS DCT MOBLO DCT UBIMA DCT GILIR DCT PENDU DCT IXILU DCT EPL DCT ROUSY DCT DIK/N0430F370 N853 ARCKY T853 NVO T857 BIKMU BIKMU1A
Aircraft A320/M-SDE2E3FGIJ1RWXY/HB1

Departure

Time 2026-05-04 06:48
Airport Palma de Mallorca Airport (LEPA)

Arrival

Time 2026-05-04 08:46
Airport Düsseldorf Airport (EDDL)
Time Latitude Longitude Altitude Speed Heading
2026-05-04 06:29 39.55297 2.73436 38 ft 0 kts 238°
2026-05-04 06:40 39.55296 2.73542 35 ft 0 kts 329°
2026-05-04 06:41 39.55297 2.73542 35 ft 1 kts 328°
2026-05-04 06:42 39.55329 2.73516 35 ft 7 kts 329°
2026-05-04 06:42 39.55391 2.73466 38 ft 11 kts 328°
2026-05-04 06:42 39.55437 2.73454 38 ft 6 kts 19°
2026-05-04 06:44 39.55728 2.73654 37 ft 12 kts 56°
2026-05-04 06:44 39.55781 2.73760 37 ft 17 kts 59°
2026-05-04 06:44 39.55834 2.73878 38 ft 12 kts 59°
2026-05-04 06:45 39.55887 2.73990 37 ft 14 kts 49°
2026-05-04 06:45 39.55937 2.74098 36 ft 12 kts 59°
2026-05-04 06:45 39.55957 2.74142 38 ft 7 kts 58°
2026-05-04 06:45 39.55993 2.74218 38 ft 13 kts 58°
2026-05-04 06:46 39.56041 2.74274 38 ft 10 kts 22°
2026-05-04 06:46 39.56119 2.74322 38 ft 14 kts 28°
2026-05-04 06:46 39.56194 2.74343 38 ft 10 kts 342°
2026-05-04 06:46 39.56226 2.74280 37 ft 8 kts 275°
2026-05-04 06:48 39.54099 2.69741 1394 ft 164 kts 237°
2026-05-04 06:48 39.53483 2.68467 1949 ft 175 kts 237°
2026-05-04 06:49 39.52805 2.67047 2262 ft 195 kts 237°
2026-05-04 06:50 39.44898 2.57588 6401 ft 265 kts 206°
2026-05-04 06:51 39.43166 2.56730 7240 ft 271 kts 188°
2026-05-04 06:51 39.41296 2.57084 8048 ft 281 kts 156°
2026-05-04 06:51 39.39728 2.58638 8858 ft 289 kts 138°
2026-05-04 06:51 39.38261 2.60446 9655 ft 291 kts 144°
2026-05-04 06:52 39.36721 2.62184 10366 ft 298 kts 139°
2026-05-04 06:52 39.35245 2.64194 10675 ft 320 kts 138°
2026-05-04 06:52 39.33604 2.66279 10968 ft 339 kts 140°
2026-05-04 06:52 39.31860 2.68388 11579 ft 347 kts 141°
2026-05-04 06:53 39.30065 2.70532 12265 ft 353 kts 141°
2026-05-04 06:53 39.28300 2.72725 12926 ft 361 kts 135°
2026-05-04 06:53 39.26923 2.75508 13569 ft 375 kts 116°
2026-05-04 06:53 39.26312 2.78819 14143 ft 386 kts 94°
2026-05-04 06:54 39.26657 2.82277 14705 ft 393 kts 71°
2026-05-04 06:54 39.27958 2.85368 15261 ft 394 kts 47°
2026-05-04 06:54 39.29358 2.87216 15679 ft 394 kts 39°
2026-05-04 06:54 39.31375 2.89638 16257 ft 398 kts 39°
2026-05-04 06:55 39.33396 2.92062 16820 ft 403 kts 39°
2026-05-04 06:55 39.35461 2.94544 17394 ft 407 kts 39°
2026-05-04 06:55 39.37545 2.97060 17959 ft 412 kts 39°
2026-05-04 06:55 39.39654 2.99610 18515 ft 416 kts 39°
2026-05-04 06:56 39.41774 3.02185 19033 ft 420 kts 40°
2026-05-04 06:57 39.57140 3.20919 22514 ft 446 kts 40°
2026-05-04 06:58 39.59415 3.23689 22997 ft 450 kts 40°
2026-05-04 06:58 39.61708 3.26494 23457 ft 454 kts 40°
2026-05-04 06:58 39.64011 3.29319 23863 ft 457 kts 40°
2026-05-04 06:58 39.66300 3.32130 24261 ft 460 kts 40°
2026-05-04 06:59 39.68663 3.35034 24651 ft 463 kts 40°
2026-05-04 06:59 39.70976 3.37877 25029 ft 466 kts 40°
2026-05-04 06:59 39.73338 3.40780 25394 ft 469 kts 40°
2026-05-04 06:59 39.75716 3.43704 25755 ft 471 kts 40°
2026-05-04 07:01 39.92680 3.64668 28139 ft 489 kts 40°
2026-05-04 07:01 39.95153 3.67736 28465 ft 491 kts 40°
2026-05-04 07:02 39.97635 3.70820 28785 ft 493 kts 40°
2026-05-04 07:02 40.00123 3.73916 29105 ft 496 kts 40°
2026-05-04 07:02 40.02623 3.77029 29408 ft 498 kts 40°
2026-05-04 07:02 40.05137 3.80160 29710 ft 500 kts 40°
2026-05-04 07:03 40.07663 3.83309 29999 ft 502 kts 40°
2026-05-04 07:03 40.10164 3.86432 30254 ft 504 kts 40°
2026-05-04 07:03 40.12693 3.89591 30490 ft 505 kts 40°
2026-05-04 07:03 40.15250 3.92792 30727 ft 507 kts 40°
2026-05-04 07:04 40.17796 3.95983 30950 ft 509 kts 40°
2026-05-04 07:04 40.20352 3.99194 31169 ft 510 kts 40°
2026-05-04 07:04 40.22917 4.02419 31449 ft 510 kts 40°
2026-05-04 07:04 40.25476 4.05639 31766 ft 509 kts 40°
2026-05-04 07:05 40.28034 4.08860 32066 ft 509 kts 41°
2026-05-04 07:05 40.30587 4.12078 32361 ft 508 kts 41°
2026-05-04 07:05 40.33101 4.15250 32650 ft 508 kts 41°
2026-05-04 07:05 40.35642 4.18460 32943 ft 508 kts 41°
2026-05-04 07:06 40.40730 4.24888 33537 ft 507 kts 41°
2026-05-04 07:06 40.43273 4.28105 33843 ft 506 kts 41°
2026-05-04 07:06 40.45840 4.31269 34136 ft 503 kts 36°
2026-05-04 07:07 40.48649 4.33986 34395 ft 497 kts 27°
2026-05-04 07:08 40.71037 4.41685 35004 ft 473 kts
2026-05-04 07:09 40.74291 4.42467 35006 ft 473 kts
2026-05-04 07:09 40.80773 4.44021 35005 ft 472 kts
2026-05-04 07:10 40.87209 4.45565 35002 ft 472 kts
2026-05-04 07:12 41.13059 4.51850 35003 ft 471 kts
2026-05-04 07:12 41.19515 4.53421 35005 ft 471 kts
2026-05-04 07:13 41.25920 4.54987 35005 ft 471 kts
2026-05-04 07:13 41.32377 4.56567 35002 ft 471 kts
2026-05-04 07:14 41.48501 4.60534 35001 ft 471 kts
2026-05-04 07:15 41.53857 4.61845 34999 ft 470 kts
2026-05-04 07:15 41.61352 4.63691 35002 ft 470 kts
2026-05-04 07:16 41.66746 4.65019 35000 ft 470 kts
2026-05-04 07:16 41.73098 4.67042 35002 ft 477 kts 16°
2026-05-04 07:17 41.79026 4.71205 34998 ft 484 kts 27°
2026-05-04 07:17 41.84797 4.75870 34994 ft 483 kts 27°
2026-05-04 07:18 41.90570 4.80522 34996 ft 483 kts 27°
2026-05-04 07:18 41.96336 4.85158 35004 ft 482 kts 27°
2026-05-04 07:19 42.02054 4.89776 35014 ft 482 kts 27°
2026-05-04 07:19 42.07799 4.94433 35020 ft 482 kts 27°
2026-05-04 07:20 42.13545 4.99104 35008 ft 482 kts 27°
2026-05-04 07:20 42.19282 5.03783 35023 ft 482 kts 27°
2026-05-04 07:22 42.42219 5.22549 35024 ft 481 kts 27°
2026-05-04 07:23 42.47909 5.27235 35031 ft 481 kts 27°
2026-05-04 07:23 42.53638 5.31956 35030 ft 481 kts 27°
2026-05-04 07:24 42.59360 5.36678 35036 ft 481 kts 27°
2026-05-04 07:24 42.65073 5.41409 35040 ft 481 kts 27°
2026-05-04 07:26 42.87856 5.60385 35050 ft 479 kts 28°
2026-05-04 07:27 42.93560 5.65147 35051 ft 479 kts 28°
2026-05-04 07:27 42.99248 5.69928 35053 ft 479 kts 28°
2026-05-04 07:28 43.04888 5.74669 35055 ft 479 kts 28°
2026-05-04 07:28 43.10566 5.79448 35060 ft 479 kts 28°
2026-05-04 07:29 43.16245 5.84259 35065 ft 478 kts 28°
2026-05-04 07:29 43.21881 5.89035 35069 ft 478 kts 28°
2026-05-04 07:30 43.27543 5.93827 35074 ft 478 kts 29°
2026-05-04 07:30 43.33206 5.98637 35082 ft 478 kts 29°
2026-05-04 07:31 43.39054 6.02863 35086 ft 471 kts 15°
2026-05-04 07:33 43.61455 6.06252 35087 ft 463 kts
2026-05-04 07:33 43.64676 6.06582 35086 ft 463 kts 360°
2026-05-04 07:33 43.71112 6.07236 35091 ft 464 kts
2026-05-04 07:34 43.77510 6.08561 35095 ft 470 kts 14°
2026-05-04 07:34 43.83512 6.12178 35101 ft 475 kts 24°
2026-05-04 07:35 43.89444 6.16227 35113 ft 475 kts 24°
2026-05-04 07:35 43.95381 6.20271 35103 ft 475 kts 24°
2026-05-04 07:36 44.01317 6.24331 35113 ft 475 kts 24°
2026-05-04 07:38 44.25008 6.40625 35114 ft 475 kts 24°
2026-05-04 07:38 44.30923 6.44730 35116 ft 474 kts 24°
2026-05-04 07:39 44.36839 6.48836 35114 ft 474 kts 24°
2026-05-04 07:39 44.42712 6.52910 35116 ft 474 kts 24°
2026-05-04 07:40 44.48620 6.57029 35118 ft 473 kts 24°
2026-05-04 07:40 44.54512 6.61145 35117 ft 473 kts 25°
2026-05-04 07:41 44.60425 6.65268 35122 ft 473 kts 24°
2026-05-04 07:41 44.66330 6.69403 35125 ft 473 kts 25°
2026-05-04 07:42 44.72213 6.73555 35124 ft 473 kts 25°
2026-05-04 07:42 44.78182 6.77313 35129 ft 470 kts 14°
2026-05-04 07:43 44.84584 6.78716 35131 ft 463 kts 356°
2026-05-04 07:43 44.91012 6.78311 35135 ft 462 kts 353°
2026-05-04 07:44 44.97449 6.77889 35138 ft 463 kts 353°
2026-05-04 07:44 45.03857 6.77476 35134 ft 463 kts 353°
2026-05-04 07:45 45.10308 6.77055 35131 ft 463 kts 353°
2026-05-04 07:45 45.16760 6.76618 35123 ft 463 kts 353°
2026-05-04 07:46 45.23212 6.76187 35119 ft 464 kts 353°
2026-05-04 07:46 45.29670 6.75759 35112 ft 464 kts 353°
2026-05-04 07:47 45.36085 6.75330 35098 ft 464 kts 353°
2026-05-04 07:49 45.61868 6.73583 35077 ft 463 kts 353°
2026-05-04 07:49 45.68265 6.73146 35067 ft 462 kts 353°
2026-05-04 07:50 45.74705 6.72700 35062 ft 463 kts 353°
2026-05-04 07:50 45.81152 6.72250 35059 ft 463 kts 353°
2026-05-04 07:51 45.87552 6.71813 35053 ft 463 kts 353°
2026-05-04 07:51 45.94009 6.71389 35055 ft 464 kts 353°
2026-05-04 07:52 46.00466 6.70953 35051 ft 464 kts 353°
2026-05-04 07:52 46.06938 6.70499 35046 ft 465 kts 353°
2026-05-04 07:54 46.30410 6.61490 35042 ft 456 kts 336°
2026-05-04 07:55 46.36408 6.58562 35045 ft 457 kts 336°
2026-05-04 07:55 46.42444 6.55607 35045 ft 457 kts 336°
2026-05-04 07:56 46.48477 6.52648 35041 ft 458 kts 336°
2026-05-04 07:56 46.54518 6.49674 35040 ft 458 kts 336°
2026-05-04 07:57 46.60565 6.46693 35045 ft 459 kts 336°
2026-05-04 07:57 46.66584 6.43726 35044 ft 459 kts 336°
2026-05-04 07:58 46.72635 6.40735 35048 ft 459 kts 336°
2026-05-04 07:58 46.78685 6.37738 35046 ft 459 kts 336°
2026-05-04 07:59 46.84741 6.34725 35053 ft 459 kts 336°
2026-05-04 07:59 46.90800 6.31701 35055 ft 460 kts 336°
2026-05-04 08:00 46.96871 6.28675 35057 ft 460 kts 336°
2026-05-04 08:02 47.20192 6.13919 35057 ft 456 kts 329°
2026-05-04 08:02 47.25899 6.09801 35050 ft 456 kts 329°
2026-05-04 08:03 47.31580 6.05753 35054 ft 458 kts 333°
2026-05-04 08:03 47.37825 6.03465 35053 ft 469 kts 352°
2026-05-04 08:04 47.44395 6.03469 35054 ft 473 kts 358°
2026-05-04 08:04 47.50982 6.03640 35055 ft 473 kts 358°
2026-05-04 08:05 47.57569 6.03791 35056 ft 473 kts 357°
2026-05-04 08:05 47.64151 6.03927 35057 ft 472 kts 357°
2026-05-04 08:06 47.70725 6.04066 35050 ft 472 kts 357°
2026-05-04 08:06 47.77309 6.04217 35054 ft 473 kts 358°
2026-05-04 08:08 48.03592 6.05061 35041 ft 473 kts 358°
2026-05-04 08:11 48.33280 6.05992 35029 ft 474 kts 358°
2026-05-04 08:11 48.43147 6.06445 35030 ft 475 kts 358°
2026-05-04 08:12 48.49750 6.06789 35033 ft 475 kts 358°
2026-05-04 08:12 48.56360 6.07104 35032 ft 475 kts 358°
2026-05-04 08:13 48.62981 6.07411 35032 ft 475 kts 358°
2026-05-04 08:13 48.69587 6.07726 35032 ft 475 kts 358°
2026-05-04 08:14 48.76198 6.08051 35031 ft 475 kts 358°
2026-05-04 08:16 49.02625 6.09321 35032 ft 476 kts 358°
2026-05-04 08:16 49.09212 6.09638 35030 ft 476 kts 358°
2026-05-04 08:17 49.15833 6.09960 35028 ft 476 kts 358°
2026-05-04 08:17 49.22462 6.10278 35027 ft 476 kts 358°
2026-05-04 08:19 49.48958 6.11556 35030 ft 476 kts 358°
2026-05-04 08:20 49.55573 6.11833 35034 ft 475 kts 357°
2026-05-04 08:20 49.62141 6.12071 34796 ft 465 kts 357°
2026-05-04 08:21 49.65318 6.12189 34374 ft 460 kts 357°
2026-05-04 08:21 49.68509 6.12310 33895 ft 456 kts 357°
2026-05-04 08:21 49.71675 6.12429 33363 ft 452 kts 357°
2026-05-04 08:21 49.74813 6.12545 32858 ft 449 kts 357°
2026-05-04 08:22 49.77925 6.12659 32374 ft 445 kts 357°
2026-05-04 08:22 49.81018 6.12773 31903 ft 442 kts 357°
2026-05-04 08:24 50.01909 6.15020 28599 ft 427 kts 14°
2026-05-04 08:24 50.04738 6.16392 28144 ft 424 kts 15°
2026-05-04 08:24 50.07542 6.17770 27707 ft 421 kts 15°
2026-05-04 08:24 50.10334 6.19151 27262 ft 418 kts 15°
2026-05-04 08:25 50.13099 6.20520 26835 ft 414 kts 15°
2026-05-04 08:25 50.15837 6.21872 26406 ft 411 kts 15°
2026-05-04 08:25 50.18561 6.23212 25981 ft 408 kts 15°
2026-05-04 08:25 50.21258 6.24537 25549 ft 405 kts 15°
2026-05-04 08:26 50.23945 6.25862 25133 ft 403 kts 15°
2026-05-04 08:27 50.42817 6.34864 22943 ft 404 kts 15°
2026-05-04 08:28 50.45496 6.36140 22473 ft 401 kts 15°
2026-05-04 08:28 50.48156 6.37414 22013 ft 397 kts 15°
2026-05-04 08:28 50.50788 6.38676 21587 ft 394 kts 15°
2026-05-04 08:28 50.53401 6.39926 21171 ft 390 kts 15°
2026-05-04 08:29 50.55994 6.41169 20756 ft 387 kts 15°
2026-05-04 08:29 50.58585 6.42416 20004 ft 393 kts 16°
2026-05-04 08:29 50.61213 6.43682 19302 ft 398 kts 16°
2026-05-04 08:31 50.78101 6.57343 15549 ft 390 kts 33°
2026-05-04 08:33 50.90202 6.70076 12606 ft 382 kts 33°
2026-05-04 08:33 50.92377 6.72395 11789 ft 373 kts 33°
2026-05-04 08:35 51.05723 6.87137 9580 ft 303 kts 34°
2026-05-04 08:35 51.07440 6.89063 9310 ft 301 kts 33°
2026-05-04 08:35 51.09150 6.90977 9046 ft 298 kts 33°
2026-05-04 08:35 51.10844 6.92870 8671 ft 296 kts 33°
2026-05-04 08:37 51.20757 7.03849 6893 ft 284 kts 33°
2026-05-04 08:37 51.22379 7.05632 6516 ft 281 kts 33°
2026-05-04 08:37 51.23990 7.07399 6137 ft 279 kts 33°
2026-05-04 08:38 51.25590 7.09149 5722 ft 278 kts 33°
2026-05-04 08:38 51.27182 7.10887 5322 ft 276 kts 33°
2026-05-04 08:38 51.28770 7.12612 4927 ft 275 kts 33°
2026-05-04 08:40 51.39466 7.10242 3370 ft 234 kts 315°
2026-05-04 08:40 51.40414 7.08178 3287 ft 230 kts 293°
2026-05-04 08:40 51.40857 7.05736 3205 ft 228 kts 273°
2026-05-04 08:41 51.40762 7.03226 3106 ft 225 kts 254°
2026-05-04 08:41 51.40149 7.00942 2998 ft 222 kts 234°
2026-05-04 08:41 51.39258 6.99049 3007 ft 213 kts 232°
2026-05-04 08:41 51.38367 6.97150 2982 ft 211 kts 231°
2026-05-04 08:42 51.37493 6.95295 2764 ft 206 kts 232°
2026-05-04 08:42 51.36646 6.93501 2516 ft 199 kts 231°
2026-05-04 08:42 51.35819 6.91753 2271 ft 194 kts 231°
2026-05-04 08:42 51.35016 6.90057 2004 ft 188 kts 232°
2026-05-04 08:43 51.34251 6.88440 1744 ft 176 kts 232°
2026-05-04 08:43 51.33545 6.86951 1530 ft 160 kts 231°
2026-05-04 08:43 51.32904 6.85600 1313 ft 145 kts 231°
2026-05-04 08:43 51.32312 6.84357 1101 ft 136 kts 231°
2026-05-04 08:44 51.31746 6.83165 890 ft 136 kts 232°
2026-05-04 08:44 51.31171 6.81949 701 ft 139 kts 231°
2026-05-04 08:46 51.28309 6.76049 130 ft 12 kts 197°
2026-05-04 08:46 51.28225 6.76058 125 ft 9 kts 158°
2026-05-04 08:46 51.28193 6.76104 125 ft 5 kts 116°
2026-05-04 08:46 51.28194 6.76147 125 ft 3 kts 73°
2026-05-04 08:47 51.28203 6.76221 126 ft 12 kts 94°
2026-05-04 08:47 51.28162 6.76290 130 ft 7 kts 139°
2026-05-04 08:47 51.28134 6.76344 129 ft 6 kts 122°
2026-05-04 08:47 51.28120 6.76400 130 ft 5 kts 107°
2026-05-04 08:48 51.28116 6.76450 126 ft 4 kts 94°
2026-05-04 08:48 51.28112 6.76491 127 ft 3 kts 96°
2026-05-04 08:48 51.28110 6.76524 128 ft 2 kts 96°
2026-05-04 08:48 51.28109 6.76537 129 ft 1 kts 96°
2026-05-04 08:49 51.28109 6.76540 130 ft 0 kts 96°
2026-05-04 08:50 51.28108 6.76546 129 ft 0 kts 96°